Location: Diebersbach
(48.5163°N, 8.0558°E)
Time: 09:11:53
(UTC+00:00)

Cosmos 1356 - Pass Details

Date: 20 June 2021
Orbit: 438 x 439 km, 81.1° (Epoch: 26 July)

Event Time Altitude Azimuth Distance (km) Brightness Sun altitude
Exits shadow 00:36:46 33° 238° (WSW) 754 4.1 -16.5°
Maximum altitude 00:37:47 45° 285° (WNW) 609 4.0 -16.4°
Drops below altitude 10° 00:41:05 10° 0° (N) 1,563 7.3 -16.3°
Sets 00:43:13 0° 7° (N) 2,438 8.8 -16.2°
